GW3202 Weather Reports


Display with metric or nautical units.
time (UTC)temp
F
wind
direction
speed
MPH
gust
MPH
rain 1hr
in
rain 24hr
in
rain mn
in
humidity
%
barometer
mb
20260905165003 72 69 2.0 7.0 0.00 0.00 0.00 79 1021.0
20260905164003 73 280 4.0 6.0 0.00 0.00 0.00 76 1021.1
20260905163004 71 117 2.0 6.0 0.00 0.00 0.00 77 1021.2
20260905162003 71 150 1.0 5.0 0.00 0.00 0.00 76 1021.2
20260905161004 72 12 1.0 3.0 0.00 0.00 0.00 77 1021.5
20260905160003 68 171 1.0 6.0 0.00 0.00 0.00 81 1021.5
20260905155004 69 339 2.0 6.0 0.00 0.00 0.00 83 1021.4
20260905154003 69 334 4.0 6.0 0.00 0.00 0.00 86 1021.5
20260905152004 69 26 2.0 6.0 0.00 0.00 0.00 85 1021.4
20260905150004 69 2 2.0 3.0 0.00 0.00 0.00 84 1021.1
20260905145004 68 1 3.0 5.0 0.00 0.00 0.00 84 1021.0
20260905144003 69 87 1.0 6.0 0.00 0.00 0.00 86 1021.2
20260905143003 67 82 1.0 5.0 0.00 0.00 0.00 87 1021.1
20260905142005 67 52 0.0 3.0 0.00 0.00 0.00 88 1021.0
20260905141003 66 52 1.0 3.0 0.00 0.00 0.00 90 1020.7
20260905140004 66 85 1.0 3.0 0.00 0.00 0.00 92 1020.9
20260905134004 65 11 1.0 2.0 0.00 0.00 0.00 94 1020.8
20260905133003 65 145 0.0 2.0 0.00 0.00 0.00 95 1020.7
20260905132004 64 270 0.0 2.0 0.00 0.00 0.00 95 1020.7
20260905131004 64 286 0.0 3.0 0.00 0.00 0.00 95 1020.6
20260905125003 64 316 0.0 5.0 0.00 0.00 0.00 94 1020.3
20260905124004 65 342 2.0 3.0 0.00 0.00 0.00 93 1020.5
20260905123004 65 36 2.0 2.0 0.00 0.00 0.00 94 1020.5
20260905122004 65 90 1.0 2.0 0.00 0.00 0.00 94 1020.4
20260905121004 65 136 1.0 7.0 0.00 0.00 0.00 94 1020.4
20260905120003 65 78 2.0 5.0 0.00 0.00 0.00 94 1020.3
20260905114004 64 74 2.0 3.0 0.00 0.00 0.00 94 1020.0
20260905113004 64 92 1.0 3.0 0.00 0.00 0.00 94 1019.9
20260905112004 64 70 1.0 3.0 0.00 0.00 0.00 94 1019.9
20260905111006 64 53 2.0 3.0 0.00 0.00 0.00 95 1020.0
20260905110004 64 47 1.0 3.0 0.00 0.00 0.00 95 1020.1
20260905103005 64 5 1.0 3.0 0.00 0.00 0.00 96 1020.0
20260905102003 64 342 2.0 3.0 0.00 0.00 0.00 96 1020.3
20260905101004 64 4 1.0 5.0 0.00 0.00 0.00 96 1020.3
20260905100005 64 279 2.0 3.0 0.00 0.00 0.00 95 1020.2
20260905095004 65 341 2.0 3.0 0.00 0.00 0.00 95 1020.4
20260905094004 65 34 1.0 3.0 0.00 0.00 0.00 95 1020.0
20260905091004 65 109 0.0 2.0 0.00 0.00 0.00 94 1020.4
20260905090004 65 112 0.0 3.0 0.00 0.00 0.00 94 1020.1
20260905085004 65 91 1.0 3.0 0.00 0.00 0.00 94 1020.0
20260905084004 65 98 1.0 3.0 0.00 0.00 0.00 94 1020.1
20260905083004 64 72 2.0 3.0 0.00 0.00 0.00 94 1020.0
20260905082004 65 113 1.0 3.0 0.00 0.00 0.00 94 1020.1
20260905081004 65 83 2.0 2.0 0.00 0.00 0.00 95 1020.0
20260905080004 65 105 1.0 3.0 0.00 0.00 0.00 95 1020.1
20260905075004 65 148 0.0 3.0 0.00 0.00 0.00 95 1020.2
20260905074005 65 45 0.0 3.0 0.00 0.00 0.00 95 1020.2
20260905073004 65 298 1.0 3.0 0.00 0.00 0.00 94 1020.1
20260905072004 66 290 1.0 3.0 0.00 0.00 0.00 92 1020.1
20260905064004 67 79 1.0 3.0 0.00 0.00 0.00 91 1020.7
20260905063006 67 142 2.0 3.0 0.00 0.00 0.00 91 1020.5
20260905062003 67 92 1.0 3.0 0.00 0.00 0.00 91 1020.7
20260905061005 67 88 0.0 3.0 0.00 0.00 0.00 91 1020.8
20260905055005 68 113 2.0 6.0 0.00 0.00 0.00 91 1020.6
20260905052004 68 157 3.0 7.0 0.00 0.00 0.00 91 1020.6
20260905051005 67 124 1.0 3.0 0.00 0.00 0.00 92 1020.7
20260905045004 68 254 1.0 6.0 0.00 0.00 0.00 92 1020.7
20260905043004 69 260 2.0 7.0 0.00 0.00 0.00 88 1020.7
20260905041005 70 144 3.0 6.0 0.00 0.00 0.00 87 1020.5
20260905040004 70 345 1.0 6.0 0.00 0.00 0.00 87 1020.4
20260905033004 70 124 1.0 10.0 0.00 0.00 0.00 84 1020.5
20260905032004 70 163 1.0 14.0 0.00 0.00 0.00 85 1020.5
20260905030004 70 115 4.0 13.0 0.00 0.00 0.00 82 1020.3
20260905025006 70 181 3.0 14.0 0.00 0.00 0.00 84 1020.2
20260905024004 70 128 4.0 16.0 0.00 0.00 0.00 83 1020.2
20260905023004 71 151 7.0 16.0 0.00 0.00 0.00 83 1020.1
20260905022006 71 143 7.0 15.0 0.00 0.00 0.00 79 1019.8
20260905021004 71 152 8.0 15.0 0.00 0.00 0.00 77 1019.8
20260905014005 72 144 3.0 17.0 0.00 0.00 0.00 82 1019.4
20260905013004 73 133 7.0 14.0 0.00 0.00 0.00 80 1019.3
20260905012005 73 114 9.0 18.0 0.00 0.00 0.00 80 1019.6
20260905010004 73 151 4.0 13.0 0.00 0.00 0.00 84 1019.2
20260905005004 73 181 5.0 14.0 0.00 0.00 0.00 85 1019.1
20260905002005 76 137 3.0 16.0 0.00 0.00 0.00 80 1018.5
20260905000006 77 148 6.0 16.0 0.00 0.00 0.00 78 1018.2
20260904235006 77 182 6.0 17.0 0.00 0.00 0.00 76 1017.9
20260904234005 77 175 7.0 16.0 0.00 0.00 0.00 76 1017.9
20260904233004 78 154 3.0 18.0 0.00 0.00 0.00 75 1018.1
20260904232005 78 175 5.0 15.0 0.00 0.00 0.00 74 1018.2
20260904231004 78 183 5.0 16.0 0.00 0.00 0.00 74 1018.2
20260904230008 78 136 5.0 17.0 0.00 0.00 0.00 72 1018.5
20260904225004 79 149 9.0 17.0 0.00 0.00 0.00 72 1018.2
20260904224004 79 165 8.0 18.0 0.00 0.00 0.00 70 1018.1
20260904223004 79 173 6.0 16.0 0.00 0.00 0.00 70 1018.1
20260904222004 80 168 6.0 15.0 0.00 0.00 0.00 66 1018.3
20260904221005 80 202 3.0 15.0 0.00 0.00 0.00 66 1018.0
20260904220005 80 315 2.0 14.0 0.00 0.00 0.00 66 1018.1
20260904215004 80 177 5.0 14.0 0.00 0.00 0.00 62 1018.2
20260904214004 79 178 5.0 16.0 0.00 0.00 0.00 66 1018.2
20260904213004 79 144 6.0 14.0 0.00 0.00 0.00 65 1018.3
20260904212005 80 221 5.0 9.0 0.00 0.00 0.00 62 1018.3
20260904211005 80 184 5.0 9.0 0.00 0.00 0.00 62 1018.5
20260904210004 81 220 2.0 10.0 0.00 0.00 0.00 60 1018.6
20260904205005 80 179 5.0 15.0 0.00 0.00 0.00 59 1018.8
20260904204005 80 147 5.0 12.0 0.00 0.00 0.00 60 1019.0
20260904203004 82 167 3.0 12.0 0.00 0.00 0.00 56 1019.1
20260904202004 81 177 4.0 14.0 0.00 0.00 0.00 54 1019.2
20260904200004 80 87 3.0 13.0 0.00 0.00 0.00 53 1019.4
20260904195004 82 166 7.0 12.0 0.00 0.00 0.00 53 1019.6
20260904193007 80 155 6.0 8.0 0.00 0.00 0.00 59 1019.8
20260904192005 81 193 3.0 8.0 0.00 0.00 0.00 58 1019.8
20260904190005 78 125 5.0 7.0 0.00 0.00 0.00 64 1020.1
20260904185003 78 15 1.0 8.0 0.00 0.00 0.00 63 1020.3
20260904184003 79 246 5.0 8.0 0.00 0.00 0.00 64 1020.5
20260904183015 77 166 1.0 7.0 0.00 0.00 0.00 65 1020.6
20260904182012 77 306 1.0 5.0 0.00 0.00 0.00 64 1020.9
20260904181006 75 355 2.0 9.0 0.00 0.00 0.00 68 1021.0
20260904180003 76 213 1.0 5.0 0.00 0.00 0.00 68 1021.1
20260904175003 75 211 2.0 6.0 0.00 0.00 0.00 66 1021.0
20260904174002 74 142 1.0 7.0 0.00 0.00 0.00 69 1021.3
20260904173004 74 342 2.0 5.0 0.00 0.00 0.00 71 1021.5
20260904172002 73 305 1.0 6.0 0.00 0.00 0.00 71 1021.5
20260904171003 72 227 2.0 7.0 0.00 0.00 0.00 71 1021.5
20260904170003 72 347 5.0 9.0 0.00 0.00 0.00 74 1021.5